User: anonymous   Login
Location: Dillon
(41.1766°N, 107.0923°W)
Time: 12:55:57
(UTC+00:00)
Language:

FENGYUN 1C DEB - Orbit

View from above orbital plane
View from above orbital plane
View from above satellite
View from above satellite

Ground track
Ground track

The orbit data is extracted from the following two-line orbital elements,

1 30380U 99025ACT 22337.87479798  .00000941  00000-0  22736-3 0  9992
2 30380  98.9209 304.4474 0190338 288.2909  69.7656 14.45506623835754
Epoch (UTC): 03 December 2022 20:59:42
Eccentricity: 0.0190338
inclination: 98.9209°
perigee height: 605 km
apogee height: 876 km
right ascension of ascending node: 304.4474°
argument of perigee: 288.2909°
revolutions per day: 14.45506623
mean anomaly at epoch: 69.7656°
orbit number at epoch: 83575

The dashed part of the orbit path shows where the satellite is in the earth's shadow,  

DLR